Simultaneous Nadir Overpasses (SNOs) Predictions

Prediction of SNOs near US between AQUA and NPP Satellite Orbit:

Table of predicted SNOs near US for the next 10.0 days since TLE Epoch: 8/6/2022
Index Date (AQUA) Time (AQUA) AQUA Lat,Lon Date (NPP) Time (NPP) NPP Lat,Lon Distance(km) Time Diff (sec)
1 08/07/2022 07:32:33 49.94, -78.35 08/07/2022 07:33:28 50.53, -81.32 221.45 55
2 08/09/2022 18:30:09 49.96, -82.49 08/09/2022 18:23:47 49.52, -84.91 180.46 382
3 08/09/2022 20:09:01 49.95,-107.20 08/09/2022 20:05:15 49.41,-110.23 226.20 226
4 08/12/2022 09:35:54 24.37,-115.29 08/12/2022 09:28:46 24.69,-116.81 157.98 428
5 08/15/2022 06:41:14 49.94, -65.48 08/15/2022 06:42:48 50.55, -68.64 235.05 94
